Hourly Data Report for October 06, 2016

All times are specified in Local Standard Time (LST). Add 1 hour to adjust for Daylight Saving Time where and when it is observed.

RANKIN INLET A
NUNAVUT

62°48'38.000" N
92°06'53.000" W
32.30 m
2303405
71083
YRT

Download Data

Hourly Data (October 2016)
Hourly Data Report for October 6, 2016
Temp Definition
°C
Dew Point Temp Definition
°C
Rel Hum Definition
%
Wind Dir Definition
10's deg

Wind Spd Definition
km/h
Visibility Definition
km
Stn Press Definition
kPa
Hmdx Definition


Wind Chill Definition


Weather Definition


TIME
00:00 Legend Double Dagger -2.4 -3.2 94 1 10 24.1 102.13   -6 Clear
01:00 Legend Double Dagger -1.4 -3.3 87 4 15 24.1 102.14   -6 LegendNANA
02:00 Legend Double Dagger -1.6 -3.6 86 2 16 24.1 102.11   -7 LegendNANA
03:00 Legend Double Dagger -2.2 -3.3 92 3 14 24.1 102.07   -7 Mainly Clear
04:00 Legend Double Dagger -3.1 -4.1 93 3 13 24.1 102.08   -8 LegendNANA
05:00 Legend Double Dagger -3.0 -4.3 91 4 14 24.1 102.09   -8 LegendNANA
06:00 Legend Double Dagger -3.6 -4.6 93 2 11 24.1 102.08   -8 Mainly Clear
07:00 Legend Double Dagger -3.4 -4.5 92 1 14 24.1 102.07   -8 LegendNANA
08:00 Legend Double Dagger -2.1 -3.4 91 1 19 24.1 102.05   -8 LegendNANA
09:00 Legend Double Dagger -1.9 -3.3 90 1 16 24.1 102.04   -7 Mainly Clear
10:00 Legend Double Dagger -1.0 -2.3 91 2 20 24.1 102.04   -7 LegendNANA
11:00 Legend Double Dagger -1.3 -3.3 86 36 23 16.1 102.04   -7 Snow Grains
12:00 Legend Double Dagger -1.0 -2.7 88 1 16 16.1 102.06   -6 Snow Grains
13:00 Legend Double Dagger -0.4 -2.3 87 1 14 4.8 102.06   -5 Snow Showers
14:00 Legend Double Dagger -0.3 -2.5 85 36 17 8.1 102.06   -5 Snow Showers
15:00 Legend Double Dagger 0.0 -3.0 80 36 22 16.1 102.07   -6 Mostly Cloudy
16:00 Legend Double Dagger -0.1 -2.3 85 36 23 16.1 102.10   -6 Snow Showers
17:00 Legend Double Dagger -1.1 -2.7 89 36 14 12.9 102.13   -6 Snow Showers
18:00 Legend Double Dagger -1.4 -2.8 90 1 16 12.9 102.19   -6 Snow Showers
19:00 Legend Double Dagger -2.1 -3.4 91 1 16 16.1 102.24   -7 LegendNANA
20:00 Legend Double Dagger -2.1 -3.2 92 3 9 9.7 102.26   -6 Snow
21:00 Legend Double Dagger -1.9 -3.5 89 3 10 16.1 102.27   -6 Snow
22:00 Legend Double Dagger -2.1 -3.2 92 32 5 16.1 102.26   -4 Snow
23:00 Legend Double Dagger -1.9 -3.3 90 29 4 24.1 102.26   -3 LegendNANA

Notes on Data Quality.

Legend

  • E = Estimated
  • M = Missing
  • NA = Not Available
  • ‡ = Partner data that is not subject to review by the National Climate Archives
Date modified: